Location: Unspecified
(0.0000°N, 0.0000°E)
Time: 12:53:42
(UTC+00:00)

deb Midas - Visible Passes

Search period start: 20 July 2025 00:00
Search period end: 30 July 2025 00:00
Orbit: 1206 x 5828 km, 89.4° (Epoch: 05 October)

Date Brightness Start Highest point End Pass type
(mag) Time Alt. Az. Time Alt. Az. Time Alt. Az.
20 Jul ? 00:05:15 10° N 00:30:20 61° NNW 00:30:20 61° NNW visible
20 Jul ? 03:07:41 10° NW 03:14:23 11° WNW 03:15:39 11° WNW visible
20 Jul ? 22:14:03 10° NNE 22:32:52 34° ENE 22:32:52 34° ENE visible
21 Jul ? 00:54:02 10° N 01:18:11 47° NW 01:18:11 47° NW visible
21 Jul ? 22:58:07 10° NNE 23:20:43 51° NE 23:20:43 51° NE visible
22 Jul ? 01:45:18 10° NNW 02:06:02 29° WNW 02:06:02 29° WNW visible
22 Jul ? 21:16:30 10° NE 21:23:16 14° ENE 21:23:16 14° ENE visible
22 Jul ? 23:44:38 10° N 00:08:35 60° N 00:08:35 60° N visible
23 Jul ? 02:43:08 10° NW 02:53:47 13° WNW 02:53:55 13° WNW visible
23 Jul ? 21:54:28 10° NNE 22:11:10 30° ENE 22:11:10 30° ENE visible
24 Jul ? 00:33:07 10° N 00:56:29 49° NW 00:56:29 49° NW visible
24 Jul ? 22:37:58 10° NNE 22:59:03 47° NE 22:59:03 47° NE visible
25 Jul ? 01:23:56 10° NNW 01:44:23 31° WNW 01:44:23 31° WNW visible
25 Jul ? 20:59:29 10° ENE 21:01:39 11° ENE 21:01:39 11° ENE visible
25 Jul ? 23:24:08 10° N 23:46:58 57° N 23:46:58 57° N visible
26 Jul ? 02:19:58 10° NW 02:32:18 15° WNW 02:32:18 15° WNW visible
26 Jul ? 21:35:06 10° NE 21:49:34 26° ENE 21:49:34 26° ENE visible
27 Jul ? 00:12:19 10° N 00:34:54 50° NW 00:34:54 50° NW visible
27 Jul ? 22:17:56 10° NNE 22:37:30 42° NE 22:37:30 42° NE visible
28 Jul ? 01:02:42 10° NNW 01:22:50 33° WNW 01:22:50 33° WNW visible
28 Jul ? 23:03:44 10° N 23:25:27 55° NNE 23:25:27 55° NNE visible
29 Jul ? 01:57:27 10° NW 02:10:47 17° WNW 02:10:47 17° WNW visible
29 Jul ? 21:15:58 10° NE 21:28:05 22° ENE 21:28:05 22° ENE visible
